ニート彗星

C/2006 K4 ( NEAT )

English version
Home page
Total 6,336 html files since Dec. 4, 1995
Updated on February 26, 2008

---------------------------------------------------------------------

・ プロフィール

発見日 2006年5月18日
発見光度 19.9等
発見者 Near-Earth-Asteroid Tracking Team (Jet Propulsion Laboratory)

・ 写真集

・ 軌道要素

The following orbital elements are taken from MPC 59875:

Epoch 2007 Dec. 6.0 TT = JDT 2454440.5
T 2007 Nov. 29.3342 TT                                  MPC
q   3.188569             (2000.0)            P               Q
z  +0.000649       Peri.  233.6136      +0.0036664      -0.5535642
 +/-0.000002       Node   116.6035      -0.3087791      +0.7914808
e   0.997932       Incl.  111.3444      -0.9511267      -0.2590846
From 237 observations 2006 May 18-2007 May 12, mean residual 0".6.

・ 星図

・ 光度変化

        m1 = 9.5 + 5 logΔ + 7.0 log r

---------------------------------------------------------------------

軌道要素はMPCのEphemerides and Orbital Elementsに掲載されたものです。
星図は StellaNavigator Ver.2.0 for Windows (アストロアーツ 編著 / アスキー出版局刊) で作成したものです。
光度グラフはComet for Windowsで作成したものです。

---------------------------------------------------------------------

Copyright(C) 1995-2008 Seiichi Yoshida (comet@aerith.net). All rights reserved.